HISPASAT 36W-1

Last updated on Sat Nov 15 2025 00:02:50 GMT+0000 (Coordinated Universal Time)

1 41942U 17006A 25318.66018097 -.00000241 00000+0 00000+0 0 9996 2 41942 0.0010 50.0115 0000925 177.9845 27.6937 1.00271138 32082
UTC large
Height (km)
Speed (km/s)
/
Latitude / Longitude
Inclination (degrees)
Orbital Period (minutes)
Azimuth
Elevation
Range (km)
Doppler Factor

Next 0 passes for location: London (51.5072 / 0.1276)

Sorry there are no passes over London.